User: anonymous   Login
Location: Unspecified
(0.0000°N, 0.0000°E)
Time: 20:20:55
(UTC+00:00)
Language:

USA 234 - Orbit

View from above orbital plane
View from above orbital plane
View from above satellite
View from above satellite

Ground track
Ground track

The orbit data is extracted from the following two-line orbital elements,

1 38109U 12014A   17321.75553407 0.00000000  00000-0  00000-0 0    02
2 38109 122.9976 111.8509 0004000 168.9012 191.0988 13.41406739    09
Epoch (UTC): 17 November 2017 18:07:58
Eccentricity: 0.0004000
inclination: 122.9976°
perigee height: 1101 km
apogee height: 1107 km
right ascension of ascending node: 111.8509°
argument of perigee: 168.9012°
revolutions per day: 13.41406739
mean anomaly at epoch: 191.0988°
orbit number at epoch: 0

The dashed part of the orbit path shows where the satellite is in the earth's shadow,  

DLR